{"data":{"norad_id":49739,"intl_designator":"2021-115R","name":"STARLINK-3155","alt_names":[],"object_type":"PAYLOAD","status":"ACTIVE","operator":null,"country":"US","launch_date":"2021-12-02","launch_site_code":"AFETR","launch_vehicle":null,"mission":null,"orbit_class":"UNKNOWN","rcs_meters":null,"size_class":null,"mass_kg":null,"dimensions":null,"purposes":["comms"],"wikipedia_slug":null,"has_3d_model":false,"image_url":null,"decayed_at":null,"tle_current":{"epoch":"2026-05-24T12:06:17.275968Z","epoch_age_seconds":118690,"freshness":"FRESH","line1":"1 49739U 21115R   26144.50436662  .00000471  00000+0  47666-4 0  9995","line2":"2 49739  53.2155 178.7763 0001245  78.4903 281.6229 15.08837378246830","mean_motion":15.08837378,"eccentricity":0.0001245,"inclination_deg":53.2155,"raan_deg":178.7763,"arg_perigee_deg":78.4903,"mean_anomaly_deg":281.6229,"bstar":4.7666e-5,"rev_number":24683,"period_min":95.437720525505,"perigee_km":538.89012627454,"apogee_km":540.61268048699,"semimajor_km":6917.8884033808,"source":"CELESTRAK","updated_at":"2026-05-25T13:38:16.834129Z"}}}